Location: Palermo
(38.1157°N, 13.3613°E)
Time: 13:29:02
(UTC+01:00)

ISS - Visible Passes

Search period start: 03 December 2022 00:00
Search period end: 13 December 2022 00:00
Orbit: 414 x 420 km, 51.6° (Epoch: 03 December)

Date Brightness Start Highest point End Pass type
(mag) Time Alt. Az. Time Alt. Az. Time Alt. Az.
03 Dec -2.3 17:54:22 10° NNW 17:57:02 21° NNE 17:57:24 21° NE visible
04 Dec -2.6 18:42:32 10° NW 18:44:45 39° NW 18:44:45 39° NW visible
05 Dec -3.6 17:54:27 10° NW 17:57:43 49° NE 17:59:23 24° E visible
05 Dec -0.2 19:32:06 10° W 19:32:22 11° W 19:32:22 11° W visible
06 Dec -1.8 18:43:16 10° WNW 18:46:10 27° SW 18:47:22 22° SSW visible
07 Dec -2.9 17:54:49 10° WNW 17:58:05 51° SW 18:01:20 10° SSE visible
09 Dec -0.6 17:55:57 10° W 17:58:08 16° SW 18:00:19 10° S visible
